User: anonymous   Login
Location: Dimsdale
(55.1333°N, 118.9833°W)
Time: 07:11:23
(UTC+00:00)
Language:

NOAA 17 DEB - Orbit

View from above orbital plane
View from above orbital plane
View from above satellite
View from above satellite

Ground track
Ground track

The orbit data is extracted from the following two-line orbital elements,

1 48744U 02032CD  24139.87583299  .00016303  00000-0  57707-2 0  9995
2 48744  98.8779 116.1390 0017021 343.4946  16.5682 14.34542819164125
Epoch (UTC): 18 May 2024 21:01:11
Eccentricity: 0.0017021
inclination: 98.8779°
perigee height: 764 km
apogee height: 789 km
right ascension of ascending node: 116.1390°
argument of perigee: 343.4946°
revolutions per day: 14.34542819
mean anomaly at epoch: 16.5682°
orbit number at epoch: 16412

The dashed part of the orbit path shows where the satellite is in the earth's shadow,  

DLR